NUDT-PHONESAT (40900 NORAD) Tracking and Keplerian Element Data

This shows tracking and keplerian element data for the satellite.

Feedback or suggestion? Click here.




ElementValue
Catalog40900
NameNUDT-PHONESAT
Epoch Orbit21775
Epoch Day236.00111196
Epoch Year2019
RAAN244.6881
Inclination97.4369
Eccentricity0.0011626
Argument of Perigee319.603
Mean Anonmoly92.3324
Mean Motion15.2294848
Decay Rate1.141E-05
L11 40900U 15049B 19236.00111196 .00001141 00000-0 51559-4 0 9998
L22 40900 97.4369 244.6881 0011626 319.6030 92.3324 15.22948480217752

Live tracking and technical data element details for NUDT-PHONESAT (NORAD 40900). NUDT-PHONESAT can be tracked NOW for your location showing map with azimuth and elevation plus other details from your city location.

Track the satellite on the map from your city or location and see movement details for azimuth, elevation, latitude, longitude, range, height, and movement on the map or in text.







IsCatalogInMostPopularTable: catalog: 40900, numindb: 172
Update: records affected: 1



GetName: 40900 NUDT-PHONESAT

Hit Count: updated at: Sun, 25 Aug 2019 18:59:00 GMT